Chico, CA

7:00 PM PDT on March 28, 2017 (GMT -0700)
Chico Municipal

Weather History for KCIC - January, 2013

Change the Weather History Date:

Wednesday, January 9, 2013

  Actual Average (KOVE) Record (KOVE)
Temperature  
Mean Temperature 42 °F -  
Max Temperature 46 °F 53 °F 76 °F (1962)
Min Temperature 37 °F 35 °F 26 °F (1957)
Degree Days  
Heating Degree Days 24    
Moisture  
Dew Point 40 °F    
Average Humidity 96    
Maximum Humidity 100    
Minimum Humidity 71    
Precipitation  
Precipitation 0.00 in - - ()
Sea Level Pressure  
Sea Level Pressure 30.06 in    
Wind  
Wind Speed 3 mph (NNW)    
Max Wind Speed 12 mph    
Max Gust Speed -    
Visibility 6 miles    
Events Rain    
Averages and records for this station are not official NWS values.
T = Trace of Precipitation, MM = Missing Value Source: NWS Daily Summary

Daily Weather History Graph

Daily Weather History Graph

Search for Another Location

Airport or City:

Trip Planner

Search our weather history database for the weather conditions in past years. The results will help you decide how hot, cold, wet, or windy it might be!

Date:

Astronomy

Jan. 09, 2013 Rise Set
Actual Time 7:28 AM PST 5:01 PM PST
Civil Twilight 6:58 AM PST 5:31 PM PST
Nautical Twilight 6:25 AM PST 6:04 PM PST
Astronomical Twilight 5:52 AM PST 6:37 PM PST
Moon 5:13 AM PST (1/9) 3:08 PM PST (1/9)
Length of Visible Light 10h 32m
Length of Day
9h 32m
Waning Crescent, 6% of the Moon is Illuminated
Jan 9
Waning Crescent
Jan 11
New
Jan 18
First Quarter
Jan 26
Full
Feb 3
Last Quarter

Hourly Weather History & Observations

Time (PST) Temp. Windchill Dew Point Humidity Pressure Visibility Wind Dir Wind Speed Gust Speed Precip Events Conditions
12:15 AM 41.0 °F - 41.0 °F 100% 30.19 in 10.0 mi Calm Calm - N/A   Clear
12:35 AM 42.8 °F - 41.0 °F 93% 30.18 in 10.0 mi Calm Calm - N/A   Clear
12:55 AM 39.2 °F 35.9 °F 39.2 °F 100% 30.20 in 5.0 mi NW 4.6 mph - N/A   Clear
1:15 AM 39.2 °F 34.2 °F 39.2 °F 100% 30.20 in 5.0 mi NNW 6.9 mph - N/A   Clear
1:35 AM 41.0 °F 38.0 °F 41.0 °F 100% 30.19 in 10.0 mi North 4.6 mph - N/A   Clear
1:55 AM 41.0 °F 36.4 °F 41.0 °F 100% 30.19 in 10.0 mi North 6.9 mph - N/A   Clear
2:15 AM 44.6 °F - 41.0 °F 87% 30.19 in 10.0 mi Calm Calm - N/A   Clear
2:35 AM 42.8 °F - 41.0 °F 93% 30.19 in 10.0 mi Calm Calm - N/A   Clear
2:55 AM 41.0 °F 39.0 °F 41.0 °F 100% 30.17 in 10.0 mi ESE 3.5 mph - N/A   Clear
3:15 AM 41.0 °F - 41.0 °F 100% 30.17 in 10.0 mi Calm Calm - N/A   Clear
3:35 AM 41.0 °F - 41.0 °F 100% 30.16 in 10.0 mi Calm Calm - N/A   Clear
3:55 AM 41.0 °F 39.0 °F 39.2 °F 93% 30.16 in 5.0 mi NW 3.5 mph - N/A   Clear
4:15 AM 41.0 °F 39.0 °F 41.0 °F 100% 30.15 in 7.0 mi North 3.5 mph - N/A   Clear
4:35 AM 39.2 °F 35.9 °F 39.2 °F 100% 30.15 in 10.0 mi North 4.6 mph - N/A   Clear
5:15 AM 41.0 °F - 41.0 °F 100% 30.13 in 10.0 mi Calm Calm - N/A   Clear
5:35 AM 39.2 °F - 39.2 °F 100% 30.11 in 3.0 mi Calm Calm - N/A   Clear
5:55 AM 39.2 °F - 39.2 °F 100% 30.12 in 2.5 mi Calm Calm - N/A   Clear
6:15 AM 39.2 °F - 39.2 °F 100% 30.11 in 10.0 mi Calm Calm - N/A   Clear
6:35 AM 39.2 °F - 39.2 °F 100% 30.11 in 10.0 mi Calm Calm - N/A   Clear
6:55 AM 39.2 °F - 39.2 °F 100% 30.12 in 2.0 mi Calm Calm - N/A   Mostly Cloudy
7:55 AM 39.2 °F - 39.2 °F 100% 30.11 in 2.0 mi Calm Calm - N/A   Overcast
8:50 AM 41.0 °F - 41.0 °F 100% 30.11 in 3.0 mi Calm Calm - N/A   Overcast
9:50 AM 44.6 °F 41.4 °F 44.6 °F 100% 30.09 in 7.0 mi SSE 5.8 mph - N/A   Overcast
10:55 AM 46.4 °F 42.9 °F 42.8 °F 87% 30.05 in 7.0 mi SSE 6.9 mph - N/A   Overcast
11:50 AM 46.4 °F 41.9 °F 42.8 °F 87% 30.06 in 7.0 mi South 9.2 mph - N/A   Overcast
1:50 PM 44.6 °F 39.7 °F 44.6 °F 100% 29.96 in 6.0 mi SE 9.2 mph - N/A   Overcast
2:59 PM 46.4 °F 42.9 °F 44.6 °F 93% 29.95 in 5.0 mi SSE 6.9 mph - N/A   Overcast
3:47 PM 46.4 °F 41.9 °F 42.8 °F 87% 29.94 in 5.0 mi SSE 9.2 mph - N/A   Overcast
4:47 PM 44.6 °F 38.8 °F 42.8 °F 93% 29.94 in 3.0 mi West 11.5 mph - N/A Rain Light Rain
5:48 PM 44.6 °F 39.2 °F 41.0 °F 87% 29.94 in 4.0 mi NNW 10.4 mph - N/A Rain Light Rain
6:47 PM 44.6 °F 39.2 °F 37.4 °F 76% 29.94 in 8.0 mi North 10.4 mph - N/A Rain Light Rain
6:55 PM 44.6 °F 39.7 °F 37.4 °F 76% 29.93 in 10.0 mi NNE 9.2 mph - N/A   Overcast
7:15 PM 44.6 °F 41.4 °F 35.6 °F 71% 29.93 in 10.0 mi NNE 5.8 mph - N/A   Overcast
7:35 PM 42.8 °F 37.0 °F 39.2 °F 87% 29.93 in 10.0 mi NW 10.4 mph - N/A   Overcast
7:55 PM 41.0 °F 38.0 °F 41.0 °F 100% 29.95 in 10.0 mi WNW 4.6 mph - N/A   Overcast
8:15 PM 39.2 °F 34.2 °F 39.2 °F 100% 29.94 in 0.8 mi NNW 6.9 mph - N/A   Overcast
8:35 PM 41.0 °F 36.4 °F 41.0 °F 100% 29.95 in 0.2 mi NW 6.9 mph - N/A   Overcast
8:55 PM 41.0 °F 38.0 °F 41.0 °F 100% 29.96 in 0.2 mi West 4.6 mph - N/A   Overcast
9:15 PM 41.0 °F 39.0 °F 41.0 °F 100% 29.97 in 0.2 mi NW 3.5 mph - N/A   Overcast
9:35 PM 39.2 °F - 39.2 °F 100% 29.97 in 0.2 mi Calm Calm - N/A   Overcast
9:55 PM 39.2 °F - 39.2 °F 100% 29.98 in 1.2 mi Calm Calm - N/A   Overcast
10:15 PM 37.4 °F - 37.4 °F 100% 30.00 in 0.2 mi Calm Calm - N/A   Overcast
10:35 PM 39.2 °F - 39.2 °F 100% 30.00 in 0.2 mi Calm Calm - N/A   Overcast
10:55 PM 37.4 °F 33.8 °F 37.4 °F 100% 30.01 in 0.2 mi ESE 4.6 mph - N/A   Overcast